Regional Weather Roundup
Issued by NWS

Home | Current Version | Previous Version | Text Only | Print | Product List | Glossary On
Versions: 1 2 3 4 5 6 7 8 9 10 11 12 13 14 15 16 17 18 19 20 21 22 23 24 25 26 27 28 29 30 31 32 33 34 35 36 37 38 39 40 41 42 43 44 45 46 47 48 49 50
702
ASUS43 KDTX 220601
RWRMI
MICHIGAN HOURLY REGIONAL WEATHER ROUNDUP
NATIONAL WEATHER SERVICE DETROIT/PONTIAC MI
100 AM EST WED FEB 22 2017

NOTE: "FAIR" INDICATES FEW OR NO CLOUDS BELOW 12,000 FEET WITH NO
SIGNIFICANT WEATHER AND/OR OBSTRUCTION TO VISIBILITY.

MIZ047>049-052>055-059>063-066>070-074>076-081>083-220700-
SOUTHEAST LOWER MICHIGAN

CITY           SKY/WX    TMP DP  RH WIND       PRES   REMARKS
ADRIAN         CLOUDY    44  44 100 CALM      29.91F FOG
6HR MIN TEMP:  44; 6HR MAX TEMP:  55;

ALMA           FOG       45  44  97 S3        29.89S VSB 1/4
ANN ARBOR      FOG       40  40 100 CALM      29.90F VSB 1/2
BAD AXE        FOG       40  40 100 CALM      29.90F VSB<1/4
6HR MIN TEMP:  32; 6HR MAX TEMP:  43;

CARO           FOG       38  38  99 CALM      29.89F VSB<1/4
DETROIT CITY   PTCLDY    46  45  96 CALM      29.91S FOG
6HR MIN TEMP:  44; 6HR MAX TEMP:  55;

DETROIT        CLOUDY    47  46  97 CALM      29.91F FOG
6HR MIN TEMP:  46; 6HR MAX TEMP:  55;

FLINT          FOG       40  40 100 CALM      29.89F VSB 1/4
6HR MIN TEMP:  37; 6HR MAX TEMP:  54;

GROSSE ILE     PTCLDY    39  38  97 S3        29.90F FOG
6HR MIN TEMP:  38; 6HR MAX TEMP:  48;

HILLSDALE      PTCLDY    46  46 100 S5        29.89S FOG
HOWELL         FOG       42  40  96 CALM      29.89S VSB 1/4
6HR MIN TEMP:  42; 6HR MAX TEMP:  54;


CITY           SKY/WX    TMP DP  RH WIND       PRES   REMARKS
JACKSON        PTCLDY    45  44  97 CALM      29.89F FOG
6HR MIN TEMP:  44; 6HR MAX TEMP:  58; 6HR PCP: TRACE;

LAMBERTVILLE   PTCLDY    48  45  91 CALM      29.90F FOG
6HR MIN TEMP:  47; 6HR MAX TEMP:  56;

LANSING        FOG       47  44  90 CALM      29.89F VSB 1/4
6HR MIN TEMP:  45; 6HR MAX TEMP:  55;

LAPEER         FOG       38  38 100 CALM      29.90F VSB<1/4
6HR MIN TEMP:  38; 6HR MAX TEMP:  54;

MASON          FOG       43  43 100 CALM      29.89S VSB 1/2
MONROE         FOG       43  43 100 CALM      29.89F VSB 1/4
MT. CLEMENS    MOCLDY    38  38 100 CALM      29.89S FOG
6HR MIN TEMP:  37; 6HR MAX TEMP:  44;

PONTIAC        FOG       40  37  89 CALM      29.89S VSB 1/2
6HR MIN TEMP:  38; 6HR MAX TEMP:  55;

PORT HOPE        N/A     35  35 100 S3        29.88F
6HR MIN TEMP:  33; 6HR MAX TEMP:  43;

PORT HURON     CLOUDY    37  37 100 CALM      29.91S FOG
TRI CITIES     FOG       44  44 100 SW5       29.88F VSB 1/4
6HR MIN TEMP:  44; 6HR MAX TEMP:  50;

MIDLAND        FOG       37  37  97 CALM      29.87F VSB<1/4
6HR MIN TEMP:  35; 6HR MAX TEMP:  46;

TROY           MOCLDY    47  45  90 S3        29.92S
SAGINAW HB     FOG       41  37  87 CALM      29.88F VSB 1/4
$$
MIZ043>046-050>051-056>058-064>065-071>073-077>080-220700-
SOUTHWEST LOWER MICHIGAN

CITY           SKY/WX    TMP DP  RH WIND       PRES   REMARKS
BATTLE CREEK   PTCLDY    48  48 100 S3        29.88F FOG
6HR MIN TEMP:  46; 6HR MAX TEMP:  57;

BENTON HARBOR  FOG       45  44  97 CALM      29.87R VSB 1/4
6HR MIN TEMP:  45; 6HR MAX TEMP:  55;

BIG RAPIDS     FOG       43  42  96 CALM      29.85F VSB 1/4
6HR MIN TEMP:  38; 6HR MAX TEMP:  48;

COLDWATER      PTCLDY    48  48 100 SE6       29.89F FOG
6HR MIN TEMP:  45; 6HR MAX TEMP:  53;

FREMONT        FOG       45  45 100 SE3       29.85F VSB 1/4
HOLLAND        FOG       47  46  97 S3        29.87F VSB 1/4
6HR MIN TEMP:  47; 6HR MAX TEMP:  52;

GRAND RAPIDS   FOG       49  47  93 SE3       29.87F VSB<1/4
6HR MIN TEMP:  45; 6HR MAX TEMP:  52;

IONIA          FOG       45  44  99 CALM      29.87F VSB<1/4
6HR MIN TEMP:  42; 6HR MAX TEMP:  49;

KALAMAZOO      CLEAR     48  45  89 S3        29.87F FOG
6HR MIN TEMP:  47; 6HR MAX TEMP:  56;

LUDINGTON      CLOUDY    48  43  84 S7        29.81F
6HR MIN TEMP:  36; 6HR MAX TEMP:  48;

MARSHALL       FOG       41  41  99 CALM      29.88F VSB 1/4
6HR MIN TEMP:  40; 6HR MAX TEMP:  57;

MOUNT PLEASANT FOG       42  42  99 S3        29.86F VSB 1/4
6HR MIN TEMP:  36; 6HR MAX TEMP:  51;

MUSKEGON       FOG       48  48 100 SE7       29.85F VSB 1/4
6HR MIN TEMP:  41; 6HR MAX TEMP:  48;

SOUTH HAVEN    FOG       43  43 100 CALM      29.87S VSB 1/4
$$
MIZ016>042-220700-
NORTHERN LOWER MICHIGAN

CITY           SKY/WX    TMP DP  RH WIND       PRES   REMARKS
ALPENA         MOCLDY    37  37 100 VRB3      29.83F
6HR MIN TEMP:  29; 6HR MAX TEMP:  38;

BEAVER ISLAND  CLOUDY    48  29  47 SW5       29.78S
6HR MIN TEMP:  45; 6HR MAX TEMP:  48;

BELLAIRE       CLOUDY    48  39  72 S5        29.83R
6HR MIN TEMP:  33; 6HR MAX TEMP:  48;

CADILLAC       CLOUDY    43  40  91 SW6       29.82F
CHARLEVOIX     CLOUDY    50  39  66 S10G22    29.80F
6HR MIN TEMP:  37; 6HR MAX TEMP:  50;

FRANKFORT      MOCLDY    47  37  66 E5        29.80F
GAYLORD        CLOUDY    46  37  71 SW7       29.80F
6HR MIN TEMP:  36; 6HR MAX TEMP:  47;

GRAYLING       CLOUDY    38  37  95 CALM      29.83F
6HR MIN TEMP:  31; 6HR MAX TEMP:  46;

HARBOR SPRINGS PTCLDY    40  35  80 CALM      29.78F
HOUGHTON LAKE  CLOUDY    46  43  89 S8        29.84F
6HR MIN TEMP:  33; 6HR MAX TEMP:  46;

MANISTEE       CLOUDY    47  40  76 SE3       29.80F
OSCODA         CLOUDY    41  40  97 S5        29.85F FOG
6HR MIN TEMP:  34; 6HR MAX TEMP:  46;

PELLSTON       PTCLDY    33  30  88 SE3       29.79F
6HR MIN TEMP:  31; 6HR MAX TEMP:  44;

ROGERS CITY    CLOUDY    41  39  93 S5        29.82F
TRAVERSE CITY  CLOUDY    50  40  68 CALM      29.81R
6HR MIN TEMP:  41; 6HR MAX TEMP:  52;

$$
MIZ007>008-015-220700-
EASTERN UPPER MICHIGAN

CITY           SKY/WX    TMP DP  RH WIND       PRES   REMARKS
KINROSS        CLOUDY    34  34 100 SE8       29.80F FOG     WCI  27
6HR MIN TEMP:  33; 6HR MAX TEMP:  39; 6HR PCP: TRACE;

MACKINAC ISLAN CLOUDY    38  35  89 S5        29.79F WCI  35
6HR MIN TEMP:  38; 6HR MAX TEMP:  42;

NEWBERRY       CLOUDY    39  37  93 SW12      29.77S WCI  31
6HR MIN TEMP:  36; 6HR MAX TEMP:  41;

S. S. MARIE    FOG       35  34  96 E5        29.81S VSB 1/4 WCI  31
6HR MIN TEMP:  35; 6HR MAX TEMP:  40;

MUNISING         N/A     47  36  65 S9        29.72S
6HR MIN TEMP:  36; 6HR MAX TEMP:  47;

$$
MIZ004>006-011>014-085-220700-
CENTRAL UPPER MICHIGAN

CITY           SKY/WX    TMP DP  RH WIND       PRES   REMARKS
MANISTIQUE     MOCLDY    38  37  97 S9        29.77S WCI  31
6HR MIN TEMP:  36; 6HR MAX TEMP:  38;

ESCANABA       CLOUDY    39  35  86 S5        29.76S
6HR MIN TEMP:  38; 6HR MAX TEMP:  45;

MENOMINEE      CLOUDY    49  37  63 SW6       29.76F
6HR MIN TEMP:  47; 6HR MAX TEMP:  50;

SAWYER-GWINN   CLOUDY    43  35  73 S7        29.71F
6HR MIN TEMP:  43; 6HR MAX TEMP:  49;

$$
MIZ001>003-009>011-084-220700-
WESTERN UPPER MICHIGAN

CITY           SKY/WX    TMP DP  RH WIND       PRES   REMARKS
IRON MOUNTAIN  CLOUDY    44  34  67 SE3       29.70F
6HR MIN TEMP:  42; 6HR MAX TEMP:  50;

HOUGHTON       CLOUDY    40  30  67 CALM      29.65F
6HR MIN TEMP:  36; 6HR MAX TEMP:  42;

COPPER HARBOR    N/A     40  32  73 W12       29.64F WCI  33
6HR MIN TEMP:  33; 6HR MAX TEMP:  40;

IRONWOOD       CLOUDY    48  38  68 SW8       29.68R
6HR MIN TEMP:  47; 6HR MAX TEMP:  51;

$$

ABBREVIATIONS USED IN REMARKS
   TC - TEMPERATURE IN CELSIUS
  WCI - WIND CHILL INDEX
   HX - HEAT INDEX
  VSB - VISIBILITY





USA.gov is the U.S. government's official web portal to all federal, state and local government web resources and services.